Regional Weather Roundup
Issued by NWS

Home | Current Version | Previous Version | Text Only | Print | Product List | Glossary On
Versions: 1 2 3 4 5 6 7 8 9 10 11 12 13 14 15 16 17 18 19 20 21 22 23 24 25 26 27 28 29 30 31 32 33 34 35 36 37 38 39 40 41 42 43 44 45 46 47 48 49 50
856
ASUS42 KFFC 300710
RWRGA
WEATHER ROUNDUP FOR GEORGIA
NATIONAL WEATHER SERVICE PEACHTREE CITY GA
300 AM EDT THU MAR 30 2017

NOTE: "FAIR" INDICATES FEW OR NO CLOUDS BELOW 12,000 FEET WITH NO
SIGNIFICANT WEATHER AND/OR OBSTRUCTIONS TO VISIBILITY.

* = USE WITH CAUTION. THE STATIONS MARKED WITH AN ASTERISK MAY NOT
REPORT WEATHER SUCH AS PRECIPITATION, FOG, OR THUNDER AND ARE NOT
QUALITY CONTROLLED BY NWS.

THE REMARK "TC" DENOTES TEMPERATURE READING IN DEGREES CELSIUS.

GAZ001>058-300800-
NORTH GEORGIA

CITY           SKY/WX    TMP DP  RH WIND       PRES   REMARKS
ATLANTA        PTCLDY    68  60  75 SE5       29.97F
ATHENS         CLEAR     64  54  69 SE5       29.98S
CHAMBLEE       MOCLDY    68  57  68 SE6       29.96F
PEACHTREE CITY CLEAR     59  58  96 CALM      29.98S
ROME           PTCLDY    62  57  83 CALM      29.92F
WEST ATLANTA   CLEAR     64  58  80 CALM      29.96F
GAINESVILLE    CLEAR     67  54  63 SE6       30.01S
CARTERSVILLE   CLEAR     63  58  83 SE6       29.95F


CITY           SKY/WX    TMP DP  RH WIND       PRES   REMARKS
DALTON*        CLOUDY    64  55  72 CALM      29.93F
MARIETTA       PTCLDY    66  57  74 CALM      29.96F
CANTON*        CLEAR     68  50  52 CALM      29.99S
$$

GAZ059>098-102>109-300800-
CENTRAL GEORGIA

CITY           SKY/WX    TMP DP  RH WIND       PRES   REMARKS
AUGUSTA-BUSH   CLEAR     64  59  83 SE5       30.01S
AUGUSTA-DANIEL CLEAR     66  56  70 SE8       30.02S
COLUMBUS       CLEAR     65  56  72 CALM      29.95F
MACON          CLEAR     60  58  92 S3        29.97S
ROBINS AFB     CLEAR     63  61  93 SE3       29.96F


CITY           SKY/WX    TMP DP  RH WIND       PRES   REMARKS
LAGRANGE*      CLEAR     59  59 100 CALM      29.96F
SYLVANIA*      CLOUDY   N/A N/A N/A CALM      30.03F
MILLEDGEVILLE* MOCLDY    64  63  94 CALM      29.97F
$$

GAZ099>101-110>166-300800-
SOUTH GEORGIA

CITY           SKY/WX    TMP DP  RH WIND       PRES   REMARKS
SAVANNAH       CLOUDY    67  64  90 E3        30.02S
VALDOSTA       CLEAR     56  54  93 CALM      29.98F
ALMA           CLEAR     67  62  84 CALM      29.99F
ST SIMONS      CLOUDY    70  66  87 S3        30.00F
FT STEWART     PTCLDY    63  61  92 E5        29.99F
ALBANY         PTCLDY    61  56  83 CALM      29.98F
HUNTER AFB     MOCLDY    65  65 100 E6        30.00S
MOODY AFB      CLEAR     61  55  82 SE3       29.97S
BRUNSWICK      CLOUDY    70  68  94 CALM      30.01S


CITY           SKY/WX    TMP DP  RH WIND       PRES   REMARKS
BAINBRIDGE*    CLEAR     61  55  82 CALM      29.96F
MOULTRIE*      PTCLDY    63  57  82 CALM      29.99S
VIDALIA*       PTCLDY    68  63  83 SE3       30.00S
WAYCROSS*      PTCLDY    68  68 100 CALM      29.99F
DOUGLAS*       CLEAR     64  55  72 CALM      30.00F
$$




USA.gov is the U.S. government's official web portal to all federal, state and local government web resources and services.